1494658800.05,3077,13.88,73198.3,2.97,2.95,2.95,0,*42
1494658801.27,3078,13.88,73202.0,3.01,2.77,2.77,0,*43
1494658802.49,3079,13.88,73202.8,3.01,2.89,2.89,0,*42
1494658803.69,3080,13.88,73200.3,3.01,2.95,2.89,0,*49
1494658804.86,3081,13.88,73200.0,3.01,2.99,2.95,0,*49
1494658806.12,3082,13.88,73198.3,2.97,3.03,3.03,0,*48
1494658807.35,3083,13.94,73200.5,3.01,3.15,3.11,0,*43
1494658808.55,3084,13.88,73200.8,3.01,3.23,3.25,0,*46
1494658809.75,3085,13.88,73196.5,3.01,3.25,3.37,0,*42
1494658810.97,3086,13.88,73198.3,3.05,3.45,3.53,0,*41
1494658812.19,3087,13.88,73196.5,3.07,3.45,3.55,0,*44
1494658813.42,3088,13.88,73196.8,3.05,3.45,3.45,0,*48
1494658814.65,3089,13.94,73202.3,3.05,3.41,3.45,0,*4D
1494658815.88,3090,13.88,73200.0,3.05,3.45,3.45,0,*41
1494658817.11,3091,13.88,73202.0,3.05,3.41,3.45,0,*44
1494658818.34,3092,13.88,73196.5,3.05,3.41,3.45,0,*47
1494658819.59,3093,13.88,73202.3,3.07,3.45,3.41,0,*44
1494658820.84,3094,13.88,73200.8,3.07,3.33,3.33,0,*47
1494658822.09,3095,13.88,73196.3,3.07,3.33,3.41,0,*43
1494658823.32,3096,13.88,73198.3,3.07,3.29,3.33,0,*4E
1494658824.58,3097,13.88,73196.0,3.07,3.41,3.33,0,*41
1494658825.83,3098,13.88,73200.0,3.07,3.41,3.41,0,*4B
1494658827.09,3099,13.88,73198.5,3.07,3.33,3.41,0,*4F
1494658828.3,3100,13.88,73196.8,3.09,3.33,3.45,0,*44
1494658829.52,3101,13.88,73196.5,3.09,3.37,3.33,0,*40
1494658830.78,3102,13.88,73198.5,3.11,3.15,3.11,0,*4A
1494658831.99,3103,13.88,73198.5,3.09,2.77,2.73,0,*42
1494658833.22,3104,13.88,73200.0,3.09,2.51,2.51,0,*41
1494658834.42,3105,13.88,73200.3,3.07,2.35,2.35,0,*4E
1494658835.58,3106,13.88,73200.3,3.05,2.35,2.31,0,*4B
1494658836.81,3107,13.88,73196.5,3.05,2.51,2.47,0,*49
1494658838.03,3108,13.88,73202.0,3.05,2.81,2.85,0,*45
1494658839.23,3109,13.88,73200.3,3.05,2.85,2.95,0,*41
1494658840.43,3110,13.88,73198.5,3.05,3.03,2.95,0,*46
1494658841.66,3111,13.88,73200.8,3.05,3.03,3.03,0,*49
1494658842.83,3112,13.88,73202.0,3.01,2.95,2.99,0,*42
1494658844.06,3113,13.88,73202.8,3.01,3.03,3.03,0,*4F
1494658845.26,3114,13.88,73200.8,3.01,2.99,3.03,0,*4A
1494658846.49,3115,13.88,73202.3,3.01,3.03,3.03,0,*49
1494658847.66,3116,13.88,73204.3,3.01,2.99,2.99,0,*4A
1494658848.88,3117,13.88,73202.5,3.01,3.03,3.03,0,*4B
1494658850.08,3118,13.88,73198.5,3.01,2.99,3.03,0,*46
1494658851.25,3119,13.88,73202.8,3.01,2.99,2.99,0,*45
1494658852.42,3120,13.88,73202.5,3.01,2.95,2.95,0,*4F
1494658853.6,3121,13.88,73202.5,3.05,2.95,2.95,0,*4A
1494658854.83,3122,13.88,73202.3,3.05,3.03,3.07,0,*4D
1494658856.06,3123,13.88,73200.8,3.05,3.03,3.03,0,*48
1494658857.28,3124,13.88,73200.8,3.01,2.85,2.77,0,*46
1494658858.49,3125,13.88,73202.0,3.01,2.77,2.85,0,*47
1494658859.71,3126,13.88,73200.8,3.01,2.85,2.89,0,*45
1494658860.94,3127,13.88,73200.0,3.01,2.89,2.89,0,*48
1494658862.16,3128,13.88,73200.3,3.01,2.89,2.89,0,*47
1494658863.38,3129,13.88,73202.0,3.01,2.85,2.85,0,*46
1494658864.63,3130,13.88,73202.3,2.97,2.77,2.77,0,*40
1494658865.88,3131,13.88,73202.0,2.97,2.77,2.77,0,*41
1494658867.1,3132,13.88,73200.5,2.97,2.61,2.55,0,*45
1494658868.35,3133,13.88,73200.8,2.97,2.25,2.25,0,*43
1494658869.56,3134,13.88,73200.5,2.95,2.21,2.21,0,*46
1494658870.78,3135,13.88,73202.5,2.95,2.13,2.09,0,*4C
1494658872.0,3136,13.88,73202.3,2.95,2.25,2.25,0,*44
1494658873.19,3137,13.88,73202.0,2.93,2.35,2.27,0,*40
1494658874.43,3138,13.88,73198.8,2.93,2.13,2.13,0,*4C
1494658875.67,3139,13.88,73200.5,2.91,2.17,2.17,0,*4F
1494658876.9,3140,13.88,73200.0,2.91,2.17,2.17,0,*41
1494658878.12,3141,13.88,73202.5,2.91,2.09,2.09,0,*40
1494658879.35,3142,13.88,73200.3,2.91,2.09,2.09,0,*43
1494658880.6,3143,13.88,73202.8,2.89,2.13,2.13,0,*4B
1494658881.82,3144,13.88,73200.0,2.89,2.27,2.21,0,*4A
1494658883.05,3145,13.88,73200.5,2.87,2.43,2.39,0,*4E
1494658884.27,3146,13.88,73204.5,2.87,2.55,2.55,0,*40
1494658885.47,3147,13.88,73202.8,2.87,2.55,2.61,0,*46
1494658886.7,3148,13.88,73200.8,2.87,2.51,2.51,0,*4E
1494658887.9,3149,13.88,73202.3,2.87,2.39,2.31,0,*47
1494658889.07,3150,13.88,73204.8,2.87,2.27,2.27,0,*47
1494658890.3,3151,13.88,73204.8,2.87,2.17,2.17,0,*46
1494658891.53,3152,13.88,73202.5,2.87,2.13,2.13,0,*45
1494658892.78,3153,13.88,73202.8,2.85,2.09,2.09,0,*46
1494658894.03,3154,13.88,73202.3,2.85,2.13,2.09,0,*4A
1494658895.28,3155,13.88,73204.5,2.85,2.13,2.13,0,*40
1494658896.53,3156,13.88,73204.5,2.85,1.89,1.85,0,*4F
1494658897.78,3157,13.88,73202.0,2.85,2.01,1.97,0,*4E
1494658899.01,3158,13.88,73204.3,2.83,2.17,2.17,0,*4B
1494658900.24,3159,13.88,73202.5,2.83,2.17,2.25,0,*4B
1494658901.49,3160,13.88,73204.0,2.81,2.13,2.13,0,*42
1494658902.72,3161,13.88,73202.8,2.81,2.25,2.27,0,*41
1494658903.92,3162,13.88,73206.0,2.83,2.39,2.27,0,*4D
1494658905.12,3163,13.88,73204.0,2.81,2.35,2.35,0,*41
1494658906.34,3164,13.88,73200.8,2.83,2.51,2.47,0,*43
1494658907.57,3165,13.88,73200.3,2.81,2.35,2.43,0,*46
1494658908.82,3166,13.88,73202.0,2.81,2.21,2.21,0,*44
1494658910.07,3167,13.88,73200.3,2.81,2.09,2.09,0,*45
1494658911.3,3168,13.88,73200.5,2.83,2.01,2.09,0,*40
1494658912.55,3169,13.88,73202.3,2.81,1.97,1.85,0,*48
1494658913.73,3170,13.88,73200.3,2.79,1.83,1.75,0,*4D
1494658914.95,3171,13.88,73200.5,2.79,2.05,2.05,0,*45
1494658916.18,3172,13.94,73206.0,2.75,2.09,2.05,0,*46
1494658917.41,3173,13.88,73200.3,2.75,2.17,2.09,0,*44
1494658918.64,3174,13.88,73204.0,2.79,2.05,2.13,0,*47
1494658919.87,3175,13.88,73204.0,2.75,2.05,2.05,0,*4D
1494658921.1,3176,13.88,73204.0,2.75,1.93,2.01,0,*46
1494658922.35,3177,13.88,73202.5,2.73,1.97,1.97,0,*49
1494658923.6,3178,13.88,73200.5,2.73,2.05,2.05,0,*46
1494658924.85,3179,13.88,73200.8,2.73,2.25,2.25,0,*47
1494658926.12,3180,13.88,73204.5,2.73,2.17,2.17,0,*41
1494658927.37,3181,13.88,73200.8,2.73,2.13,2.01,0,*43
1494658928.59,3182,13.88,73200.3,2.71,2.05,2.01,0,*45
1494658929.79,3183,13.88,73200.8,2.71,1.79,1.85,0,*43
1494658931.02,3184,13.88,73202.0,2.71,1.55,1.55,0,*47
1494658932.2,3185,13.88,73202.3,2.71,1.79,1.79,0,*46
1494658933.44,3186,13.88,73200.3,2.69,1.93,1.93,0,*4C
1494658934.7,3187,13.88,73202.5,2.69,2.01,2.13,0,*4E
1494658935.94,3188,13.88,73202.5,2.69,2.21,2.25,0,*46
1494658937.19,3189,13.88,73202.8,2.69,2.25,2.25,0,*43
1494658938.44,3190,13.88,73200.0,2.69,2.21,2.21,0,*4B
1494658939.68,3191,13.88,73200.8,2.69,2.01,1.97,0,*46
1494658940.94,3192,13.88,73202.0,2.69,1.85,1.85,0,*49
1494658942.2,3193,13.88,73202.0,2.69,1.85,1.85,0,*48
1494658943.42,3194,13.88,73204.0,2.69,1.75,1.71,0,*4B
1494658944.64,3195,13.88,73202.8,2.67,1.75,1.71,0,*44
1494658945.82,3196,13.88,73200.3,2.67,1.41,1.41,0,*43
1494658947.06,3197,13.88,73200.3,2.65,1.37,1.33,0,*44
1494658948.27,3198,13.88,73200.0,2.65,1.43,1.43,0,*4F
1494658949.51,3199,13.88,73200.3,2.63,1.51,1.51,0,*48
1494658950.73,3200,13.88,73200.8,2.63,1.79,1.67,0,*44
1494658951.97,3201,13.88,73202.3,2.63,1.93,2.01,0,*42
1494658953.22,3202,13.88,73198.3,2.63,2.17,2.17,0,*49
1494658954.47,3203,13.88,73200.8,2.63,2.13,2.17,0,*4C
1494658955.72,3204,13.88,73202.3,2.63,2.17,2.17,0,*4F
1494658956.91,3205,13.88,73202.5,2.65,2.21,2.27,0,*4E
1494658958.14,3206,13.88,73202.0,2.65,2.09,2.17,0,*44
1494658959.39,3207,13.88,73200.3,2.63,2.25,2.17,0,*4D
1494658960.55,3208,13.88,73200.8,2.65,2.31,2.31,0,*45
1494658961.75,3209,13.88,73202.3,2.65,2.39,2.27,0,*4B
1494658962.92,3210,13.88,73202.0,2.65,2.31,2.31,0,*4C
1494658964.12,3211,13.88,73202.5,2.65,2.39,2.31,0,*45
1494658965.34,3212,13.88,73200.3,2.65,2.55,2.55,0,*4E
1494658966.56,3213,13.88,73202.5,2.65,2.55,2.55,0,*4F
1494658967.78,3214,13.88,73200.8,2.65,2.55,2.55,0,*48
1494658969.0,3215,13.88,73202.5,2.65,2.51,2.55,0,*4D
1494658970.22,3216,13.88,73200.0,2.65,2.51,2.55,0,*4E
1494658971.45,3217,13.88,73202.0,2.65,2.51,2.51,0,*4B
1494658972.7,3218,13.88,73200.3,2.67,2.47,2.55,0,*45
1494658973.95,3219,13.88,73202.5,2.67,2.47,2.55,0,*44
1494658975.19,3220,13.88,73202.5,2.67,2.55,2.59,0,*41
1494658976.45,3221,13.94,73204.5,2.69,2.59,2.59,0,*42
1494658977.7,3222,13.88,73202.5,2.67,2.59,2.59,0,*4F
1494658978.92,3223,13.88,73200.5,2.69,2.65,2.69,0,*4C
1494658980.16,3224,13.88,73198.3,2.67,2.73,2.69,0,*42
1494658981.4,3225,13.88,73202.0,2.67,2.73,2.69,0,*43
1494658982.63,3226,13.88,73202.8,2.69,2.65,2.69,0,*49
1494658983.88,3227,13.88,73204.5,2.69,2.59,2.59,0,*44
1494658985.13,3228,13.88,73202.5,2.69,2.47,2.47,0,*4B
1494658986.39,3229,13.88,73200.0,2.69,2.43,2.43,0,*4A
1494658987.64,3230,13.88,73204.0,2.69,2.43,2.43,0,*42
1494658988.89,3231,13.88,73206.3,2.69,2.47,2.47,0,*43
1494658990.14,3232,13.88,73204.8,2.69,2.55,2.59,0,*4C
1494658991.39,3233,13.88,73204.0,2.69,2.55,2.59,0,*4D
1494658992.64,3234,13.88,73204.8,2.69,2.55,2.59,0,*4A
1494658993.9,3235,13.88,73206.5,2.69,2.47,2.55,0,*44
1494658995.12,3236,13.88,73206.5,2.69,2.43,2.35,0,*45
1494658996.37,3237,13.88,73206.3,2.69,2.55,2.55,0,*45
1494658997.62,3238,13.88,73204.5,2.69,2.59,2.59,0,*4A
1494658998.88,3239,13.88,73204.8,2.69,2.59,2.59,0,*4B
1494659000.12,3240,13.88,73204.0,2.69,2.55,2.47,0,*46
1494659001.35,3241,13.88,73206.5,2.71,2.51,2.51,0,*4D
1494659002.56,3242,13.88,73204.3,2.71,2.59,2.61,0,*45
1494659003.79,3243,13.88,73206.0,2.71,2.51,2.47,0,*48
1494659004.96,3244,13.88,73202.8,2.71,2.35,2.35,0,*48
1494659006.18,3245,13.88,73204.3,2.71,2.39,2.39,0,*49
1494659007.38,3246,13.88,73206.8,2.71,2.35,2.39,0,*46
1494659008.55,3247,13.88,73204.5,2.71,2.35,2.35,0,*4B
1494659009.78,3248,13.88,73204.0,2.71,2.39,2.51,0,*4A
1494659011.04,3249,13.88,73202.5,2.69,2.43,2.47,0,*48
1494659012.29,3250,13.88,73206.3,2.69,2.47,2.55,0,*47
1494659013.54,3251,13.88,73202.5,2.69,2.43,2.43,0,*45
1494659014.74,3252,13.88,73202.3,2.71,2.39,2.35,0,*43
1494659015.97,3253,13.88,73202.5,2.73,2.35,2.39,0,*40
1494659017.17,3254,13.88,73200.5,2.71,2.39,2.35,0,*45
1494659018.36,3255,13.88,73202.3,2.71,2.39,2.35,0,*44
1494659019.59,3256,13.88,73202.5,2.71,2.39,2.39,0,*4B
1494659020.79,3257,13.88,73200.0,2.71,2.39,2.35,0,*46
1494659022.05,3258,13.88,73202.0,2.73,2.39,2.39,0,*47
1494659023.31,3259,13.88,73200.8,2.73,2.47,2.51,0,*41
1494659024.57,3260,13.88,73202.5,2.73,2.47,2.51,0,*4B
1494659025.82,3261,13.88,73200.8,2.73,2.59,2.47,0,*42
1494659027.05,3262,13.88,73198.8,2.71,2.51,2.59,0,*44
1494659028.23,3263,13.88,73200.0,2.71,2.61,2.61,0,*4D
1494659029.45,3264,13.88,73200.8,2.71,2.69,2.73,0,*41
1494659030.67,3265,13.94,73200.5,2.71,2.77,2.77,0,*4B
1494659031.92,3266,13.88,73200.0,2.73,2.89,2.85,0,*46
1494659033.18,3267,13.88,73202.0,2.73,2.89,2.89,0,*4B
1494659034.41,3268,13.88,73202.5,2.75,3.03,3.11,0,*41
1494659035.64,3269,13.88,73202.0,2.79,3.03,3.03,0,*4F
1494659036.87,3270,13.88,73198.8,2.79,3.07,3.15,0,*44
1494659038.12,3271,13.94,73202.3,2.81,3.19,3.19,0,*41
1494659039.3,3272,13.88,73200.3,2.79,3.25,3.29,0,*49
1494659040.48,3273,13.88,73200.0,2.79,3.25,3.25,0,*44
1494659041.7,3274,13.88,73202.8,2.81,3.25,3.19,0,*4B
1494659042.91,3275,13.88,73198.0,2.81,3.25,3.25,0,*45
1494659044.11,3276,13.88,73200.3,2.81,3.29,3.29,0,*46
1494659045.32,3277,13.88,73200.8,2.81,3.25,3.25,0,*47
1494659046.52,3278,13.88,73202.0,2.83,3.23,3.29,0,*40
1494659047.73,3279,13.94,73204.3,2.83,3.23,3.29,0,*41
1494659048.95,3280,13.88,73202.3,2.83,3.23,3.33,0,*4C
1494659050.16,3281,13.88,73202.5,2.83,3.07,2.99,0,*4A
1494659051.39,3282,13.88,73202.3,2.83,2.81,2.81,0,*4F
1494659052.62,3283,13.88,73200.3,2.83,2.59,2.59,0,*4E
1494659053.81,3284,13.88,73202.0,2.85,2.27,2.27,0,*4F
1494659055.01,3285,13.88,73202.0,2.85,2.27,2.27,0,*4E
1494659056.24,3286,13.94,73206.0,2.83,2.51,2.47,0,*4C
1494659057.45,3287,13.88,73204.3,2.83,2.51,2.61,0,*49
1494659058.65,3288,13.88,73200.8,2.83,2.69,2.61,0,*4D
1494659059.87,3289,13.88,73204.8,2.83,2.89,2.81,0,*4C
1494659061.1,3290,13.88,73202.5,2.83,2.89,2.89,0,*4C
1494659062.29,3291,13.88,73206.8,2.83,2.89,2.99,0,*4C
1494659063.47,3292,13.88,73200.3,2.83,2.95,2.99,0,*42
1494659064.7,3293,13.88,73204.8,2.83,2.81,2.81,0,*4F
1494659065.95,3294,13.88,73206.3,2.85,2.73,2.81,0,*43
1494659067.16,3295,13.88,73204.5,2.87,2.89,2.85,0,*41
1494659068.42,3296,13.88,73200.0,2.85,2.89,2.89,0,*4C
1494659069.63,3297,13.88,73206.3,2.87,2.85,2.85,0,*4F
1494659070.86,3298,13.88,73204.0,2.87,2.85,2.89,0,*4C
1494659072.07,3299,13.88,73206.5,2.87,2.85,2.85,0,*41
1494659073.29,3300,13.88,73200.8,2.87,2.73,2.77,0,*44
1494659074.47,3301,13.88,73204.0,2.87,2.91,2.91,0,*41
1494659075.67,3302,13.88,73204.3,2.85,2.95,2.99,0,*4C
1494659076.84,3303,13.88,73206.8,2.87,2.91,2.91,0,*43
1494659078.04,3304,13.88,73204.3,2.87,2.73,2.65,0,*43
1494659079.29,3305,13.88,73206.5,2.89,2.51,2.51,0,*4B
1494659080.49,3306,13.88,73206.5,2.85,2.35,2.27,0,*47
1494659081.72,3307,13.94,73210.0,2.87,2.17,2.17,0,*47
1494659082.97,3308,13.88,73204.5,2.85,2.01,2.01,0,*4A
1494659084.22,3309,13.88,73206.5,2.85,1.97,1.97,0,*4B
1494659085.47,3310,13.88,73204.3,2.85,2.25,2.25,0,*43
1494659086.7,3311,13.88,73206.8,2.85,2.27,2.25,0,*40
1494659087.9,3312,13.94,73208.8,2.85,2.27,2.27,0,*41
1494659089.09,3313,13.94,73210.5,2.81,2.35,2.35,0,*44
1494659090.31,3314,13.88,73204.3,2.83,2.69,2.69,0,*41
1494659091.54,3315,13.88,73204.8,2.83,2.85,2.89,0,*4C
1494659092.71,3316,13.88,73206.5,2.87,2.91,2.91,0,*47
1494659093.96,3317,13.88,73204.5,2.85,2.85,2.89,0,*48
1494659095.21,3318,13.88,73206.8,2.85,2.85,2.89,0,*47
1494659096.43,3319,13.88,73208.3,2.87,2.77,2.77,0,*48
1494659097.66,3320,13.88,73204.8,2.85,2.69,2.61,0,*48
1494659098.92,3321,13.88,73204.3,2.85,2.59,2.59,0,*41
1494659100.14,3322,13.88,73204.5,2.85,2.35,2.39,0,*4E
1494659101.39,3323,13.88,73204.5,2.85,2.39,2.39,0,*43
1494659102.56,3324,13.88,73204.0,2.83,2.35,2.35,0,*42
1494659103.8,3325,13.94,73208.0,2.83,2.17,2.13,0,*47
1494659105.0,3326,13.88,73204.3,2.83,2.27,2.25,0,*42
1494659106.22,3327,13.88,73206.8,2.83,2.39,2.47,0,*48
1494659107.4,3328,13.88,73206.3,2.83,2.61,2.61,0,*4E
1494659108.62,3329,13.88,73202.5,2.83,2.73,2.73,0,*4F
1494659109.84,3330,13.88,73206.3,2.83,2.69,2.73,0,*4C
1494659111.07,3331,13.88,73206.8,2.83,2.89,2.89,0,*46
1494659112.32,3332,13.88,73204.8,2.85,2.89,2.89,0,*43
1494659113.49,3333,13.88,73202.3,2.87,2.91,2.91,0,*40
1494659114.67,3334,13.94,73206.5,2.87,2.91,2.91,0,*47
1494659115.86,3335,13.88,73204.3,2.87,2.73,2.65,0,*41
1494659117.09,3336,13.94,73206.8,2.87,2.39,2.43,0,*48
1494659118.26,3337,13.88,73202.8,2.87,2.31,2.27,0,*43
1494659119.43,3338,13.88,73202.5,2.87,2.27,2.31,0,*4C
1494659120.68,3339,13.88,73202.3,2.85,2.39,2.47,0,*41
1494659121.91,3340,13.88,73200.8,2.85,2.47,2.35,0,*43
1494659123.13,3341,13.88,73200.8,2.87,2.51,2.55,0,*41
1494659124.39,3342,13.88,73202.8,2.89,2.51,2.51,0,*48
1494659125.61,3343,13.88,73204.3,2.85,2.39,2.35,0,*49
1494659126.86,3344,13.88,73202.8,2.85,2.47,2.39,0,*4B
1494659128.07,3345,13.88,73202.0,2.85,2.61,2.61,0,*43
1494659129.32,3346,13.88,73200.3,2.85,2.73,2.73,0,*40
1494659130.56,3347,13.88,73200.3,2.85,2.73,2.73,0,*41
1494659131.77,3348,13.88,73204.5,2.87,2.91,2.89,0,*45
1494659132.94,3349,13.88,73202.0,2.87,2.91,2.99,0,*45
1494659134.11,3350,13.88,73202.5,2.87,2.99,2.99,0,*45
1494659135.34,3351,13.88,73202.3,2.87,3.03,3.11,0,*47
1494659136.54,3352,13.88,73202.5,2.87,3.25,3.15,0,*44
1494659137.79,3353,13.94,73202.5,2.89,3.23,3.23,0,*48
1494659138.96,3354,13.88,73200.0,2.91,3.25,3.25,0,*46
1494659140.17,3355,13.88,73200.8,2.89,3.25,3.25,0,*4E
1494659141.37,3356,13.88,73198.5,2.89,3.25,3.25,0,*4D
1494659142.6,3357,13.88,73198.5,2.91,3.41,3.37,0,*44
1494659143.81,3358,13.88,73198.5,2.93,3.53,3.55,0,*4E
1494659145.02,3359,13.88,73200.8,2.93,3.53,3.55,0,*4F
1494659146.23,3360,13.94,73200.5,2.93,3.55,3.53,0,*45
1494659147.42,3361,13.88,73202.0,2.95,3.53,3.55,0,*42
1494659148.63,3362,13.88,73200.8,2.93,3.55,3.53,0,*47
1494659149.81,3363,13.88,73198.3,2.95,3.53,3.55,0,*40
1494659151.01,3364,13.88,73202.5,2.97,3.55,3.59,0,*4F
1494659152.23,3365,13.88,73200.8,2.97,3.59,3.49,0,*43
1494659153.42,3366,13.88,73200.3,2.97,3.55,3.55,0,*41
1494659154.59,3367,13.88,73202.0,3.01,3.59,3.55,0,*42
1494659155.75,3368,13.88,73200.5,3.01,3.55,3.55,0,*41
1494659156.95,3369,13.88,73198.0,3.01,3.49,3.55,0,*4D
1494659158.17,3370,13.88,73198.8,3.01,3.45,3.49,0,*44
1494659159.39,3371,13.88,73198.5,3.01,3.49,3.45,0,*45
1494659160.56,3372,13.88,73200.0,3.01,3.59,3.59,0,*4A
1494659161.76,3373,13.88,73198.3,3.05,3.67,3.63,0,*4B
1494659162.96,3374,13.88,73198.8,3.05,3.63,3.67,0,*4C
1494659164.21,3375,13.88,73200.8,3.07,3.67,3.67,0,*4B
1494659165.4,3376,13.88,73200.3,3.07,3.55,3.55,0,*48
1494659166.63,3377,13.88,73202.0,3.05,3.41,3.33,0,*4E
1494659167.88,3378,13.88,73202.0,3.07,3.33,3.33,0,*46
1494659169.11,3379,13.88,73200.8,3.05,3.45,3.45,0,*45
1494659170.36,3380,13.88,73198.5,3.07,3.33,3.41,0,*44
1494659171.56,3381,13.88,73196.8,3.07,3.29,3.29,0,*40
1494659172.78,3382,13.88,73200.5,3.07,3.19,3.29,0,*40
1494659174.01,3383,13.88,73202.5,3.07,3.23,3.29,0,*48
1494659175.23,3384,13.88,73202.5,3.09,3.37,3.37,0,*4B
1494659176.44,3385,13.88,73202.5,3.09,3.33,3.37,0,*4E
1494659177.66,3386,13.88,73204.0,3.09,3.33,3.37,0,*4D
1494659178.9,3387,13.88,73200.3,3.11,3.49,3.49,0,*41
1494659180.06,3388,13.88,73202.8,3.09,3.55,3.59,0,*4B
1494659181.22,3389,13.88,73200.8,3.09,3.55,3.55,0,*46
1494659182.41,3390,13.88,73202.8,3.11,3.59,3.59,0,*47
1494659183.6,3391,13.88,73204.5,3.11,3.59,3.59,0,*46
1494659184.8,3392,13.88,73200.0,3.11,3.59,3.59,0,*45
1494659185.98,3393,13.88,73206.0,3.11,3.55,3.55,0,*44
1494659187.16,3394,13.88,73206.8,3.13,3.25,3.29,0,*4D
1494659188.33,3395,13.88,73202.0,3.13,3.25,3.25,0,*40
1494659189.54,3396,13.88,73204.3,3.13,3.19,3.19,0,*43
1494659190.79,3397,13.88,73204.5,3.11,3.11,3.11,0,*40
1494659192.05,3398,13.88,73204.3,3.11,3.15,3.15,0,*4F
1494659193.3,3399,13.88,73202.3,3.11,3.11,3.15,0,*4A
1494659194.55,3400,13.94,73206.8,3.11,3.07,3.07,0,*49
1494659195.8,3401,13.88,73202.3,3.11,3.15,3.11,0,*4C
1494659197.02,3402,13.88,73202.0,3.11,2.95,2.89,0,*46
1494659198.24,3403,13.88,73204.5,3.11,2.95,2.89,0,*47
1494659199.41,3404,13.88,73206.3,3.09,2.95,2.99,0,*48
1494659200.61,3405,13.94,73208.8,3.09,3.07,2.99,0,*43
1494659201.86,3406,13.88,73204.5,3.11,3.15,3.15,0,*4F
1494659203.11,3407,13.88,73204.8,3.11,3.11,3.15,0,*4A
1494659204.34,3408,13.88,73204.3,3.09,3.15,3.15,0,*48
1494659205.53,3409,13.88,73206.0,3.11,2.95,2.95,0,*40
1494659206.73,3410,13.88,73204.0,3.11,2.99,2.99,0,*48
1494659207.92,3411,13.88,73206.0,3.09,2.99,3.07,0,*46
1494659209.09,3412,13.88,73206.5,3.09,2.95,2.95,0,*43
1494659210.3,3413,13.88,73206.5,3.11,2.89,2.95,0,*46
1494659211.52,3414,13.88,73206.8,3.11,2.89,2.95,0,*41
1494659212.73,3415,13.88,73206.3,3.09,2.85,2.85,0,*44
1494659213.95,3416,13.88,73206.8,3.09,2.77,2.77,0,*47
1494659215.14,3417,13.88,73206.0,3.09,2.73,2.61,0,*45
1494659216.36,3418,13.88,73206.8,3.09,2.77,2.77,0,*49
1494659217.53,3419,13.88,73206.0,3.09,2.99,2.99,0,*48
1494659218.74,3420,13.88,73206.8,3.09,2.85,2.85,0,*42
1494659219.96,3421,13.88,73208.0,3.09,2.43,2.43,0,*43
1494659221.13,3422,13.88,73208.5,3.09,2.27,2.27,0,*40
1494659222.36,3423,13.88,73204.8,3.05,2.51,2.47,0,*4A
1494659223.58,3424,13.88,73206.0,3.07,2.47,2.35,0,*4D
1494659224.77,3425,13.88,73206.5,3.07,2.35,2.31,0,*4D
1494659225.96,3426,13.88,73206.0,3.07,2.35,2.31,0,*4E
1494659227.19,3427,13.88,73204.3,3.05,2.25,2.25,0,*49
1494659228.36,3428,13.88,73204.8,3.05,2.35,2.31,0,*42
1494659229.58,3429,13.88,73204.5,3.05,2.51,2.59,0,*4F
1494659230.81,3430,13.88,73206.0,3.05,2.73,2.81,0,*42
1494659231.98,3431,13.88,73206.5,3.05,2.95,2.95,0,*4E
1494659233.18,3432,13.88,73206.8,3.05,2.95,3.03,0,*43
1494659234.4,3433,13.88,73204.0,3.05,2.85,2.85,0,*4C
1494659235.62,3434,13.94,73208.8,3.05,2.73,2.73,0,*4B
1494659236.85,3435,13.88,73206.3,3.01,2.89,2.89,0,*4E
1494659238.07,3436,13.88,73206.5,3.01,2.89,2.89,0,*4D
1494659239.24,3437,13.88,73206.5,3.01,2.95,2.99,0,*40
1494659240.41,3438,13.88,73204.3,3.01,2.95,2.95,0,*43
1494659241.66,3439,13.88,73208.0,3.07,3.11,3.11,0,*44
1494659242.91,3440,13.88,73202.0,3.07,3.23,3.23,0,*4A
1494659244.12,3441,13.88,73204.8,3.05,3.19,3.19,0,*49
1494659245.37,3442,13.88,73206.0,3.07,3.23,3.23,0,*48
1494659246.58,3443,13.94,73206.8,3.05,3.29,3.33,0,*40
1494659247.83,3444,13.88,73206.0,3.07,3.41,3.45,0,*4A
1494659249.02,3445,13.88,73204.8,3.09,3.59,3.71,0,*4B
1494659250.24,3446,13.88,73204.8,3.09,3.79,3.79,0,*42
1494659251.44,3447,13.88,73206.3,3.09,3.79,3.81,0,*44
1494659252.62,3448,13.88,73206.8,3.13,3.85,3.89,0,*4B
1494659253.79,3449,13.94,73210.5,3.13,3.85,3.89,0,*4A
1494659254.96,3450,13.88,73204.0,3.13,3.85,3.85,0,*4E
1494659256.15,3451,13.88,73204.0,3.15,3.85,3.85,0,*49
1494659257.34,3452,13.88,73206.8,3.15,3.89,3.85,0,*46
1494659258.52,3453,13.88,73204.8,3.17,3.93,3.89,0,*42
1494659259.72,3454,13.88,73210.0,3.19,3.81,3.89,0,*48
1494659260.88,3455,13.94,73208.3,3.17,3.55,3.55,0,*4F
1494659262.13,3456,13.88,73204.5,3.19,3.67,3.71,0,*45
1494659263.31,3457,13.88,73204.3,3.19,3.55,3.55,0,*43
1494659264.56,3458,13.88,73206.3,3.19,3.71,3.67,0,*4B
1494659265.76,3459,13.88,73204.3,3.19,3.93,3.93,0,*4D
1494659266.99,3460,13.88,73206.8,3.21,4.05,4.05,0,*4C
1494659268.16,3461,13.88,73206.3,3.25,4.07,4.11,0,*4E
1494659269.32,3462,13.88,73204.5,3.25,4.11,4.19,0,*42
1494659270.54,3463,13.88,73204.3,3.27,4.23,4.31,0,*4A
1494659271.72,3464,13.88,73204.8,3.29,4.45,4.45,0,*40
1494659272.94,3465,13.88,73204.8,3.27,4.31,4.23,0,*4C
1494659274.12,3466,13.88,73204.0,3.29,4.23,4.33,0,*43
1494659275.34,3467,13.88,73204.8,3.31,4.05,4.11,0,*4F
1494659276.54,3468,13.88,73200.5,3.33,4.07,4.07,0,*47
1494659277.72,3469,13.88,73202.8,3.35,4.07,4.11,0,*47
1494659278.92,3470,13.88,73204.5,3.37,4.07,4.19,0,*45
1494659280.09,3471,13.88,73200.0,3.35,4.11,4.19,0,*41
1494659281.27,3472,13.94,73206.0,3.35,4.11,4.11,0,*4A
1494659282.46,3473,13.88,73200.3,3.37,4.19,4.19,0,*49
1494659283.66,3474,13.88,73204.0,3.37,4.33,4.33,0,*4E
1494659284.87,3475,13.88,73202.3,3.37,4.23,4.33,0,*4E
1494659286.07,3476,13.88,73204.8,3.41,4.27,4.27,0,*4D
1494659287.27,3477,13.88,73206.8,3.41,4.15,4.15,0,*4C
1494659288.45,3478,13.88,73204.5,3.43,4.37,4.41,0,*40
1494659289.68,3479,13.88,73206.8,3.43,4.63,4.63,0,*40
1494659290.87,3480,13.94,73206.8,3.45,4.81,4.81,0,*40
1494659292.13,3481,13.88,73204.3,3.45,4.63,4.63,0,*41
1494659293.33,3482,13.88,73204.0,3.49,4.41,4.41,0,*4E
1494659294.51,3483,13.88,73204.0,3.51,4.33,4.37,0,*42
1494659295.76,3484,13.88,73206.0,3.49,3.97,3.97,0,*48
1494659296.96,3485,13.88,73206.3,3.51,3.85,3.97,0,*43
1494659298.14,3486,13.88,73206.5,3.51,3.89,3.89,0,*43
1494659299.34,3487,13.88,73204.0,3.53,3.63,3.63,0,*40
1494659300.56,3488,13.88,73204.0,3.53,3.55,3.53,0,*49
1494659301.81,3489,13.88,73202.0,3.53,3.41,3.49,0,*46
1494659303.07,3490,13.88,73204.0,3.53,3.75,3.79,0,*4A
1494659304.27,3491,13.88,73206.0,3.57,4.27,4.27,0,*43
1494659305.53,3492,13.88,73206.8,3.57,4.63,4.71,0,*43
1494659306.73,3493,13.88,73208.8,3.57,5.07,5.07,0,*41
1494659307.91,3494,13.88,73204.5,3.59,5.49,5.59,0,*49
1494659309.1,3495,13.94,73208.3,3.61,5.41,5.49,0,*4A
1494659310.26,3496,13.88,73200.3,3.63,5.29,5.41,0,*4D
1494659311.44,3497,13.88,73202.5,3.65,5.33,5.45,0,*45
1494659312.68,3498,13.88,73204.0,3.67,5.51,5.55,0,*4D
1494659313.9,3499,13.88,73202.0,3.71,5.55,5.71,0,*49
1494659315.12,3500,13.88,73200.0,3.75,5.63,5.85,0,*42
1494659316.33,3501,13.88,73200.0,3.77,5.77,5.89,0,*48
1494659317.5,3502,13.88,73202.3,3.77,5.63,5.63,0,*4A
1494659318.7,3503,13.88,73200.8,3.81,5.93,6.07,0,*4C
1494659319.93,3504,13.88,73198.5,3.83,6.33,6.43,0,*40
1494659321.17,3505,13.88,73200.0,3.87,6.91,7.11,0,*4B
1494659322.36,3506,13.88,73202.8,3.89,7.11,7.33,0,*4F
1494659323.59,3507,13.88,73200.8,3.97,7.65,7.79,0,*4C
1494659324.82,3508,13.88,73196.8,4.01,7.79,7.95,0,*44
1494659326.02,3509,13.88,73200.5,4.07,7.97,8.13,0,*42
1494659327.25,3510,13.88,73200.5,4.09,7.59,7.77,0,*4B
1494659328.48,3511,13.88,73198.8,4.13,7.59,7.73,0,*45
1494659329.67,3512,13.88,73202.3,4.19,7.51,7.65,0,*43
1494659330.89,3513,13.94,73204.0,4.23,7.19,7.27,0,*41
1494659332.06,3514,13.88,73202.3,4.23,7.37,7.59,0,*43
1494659333.26,3515,13.88,73202.5,4.27,7.59,7.73,0,*46
1494659334.46,3516,13.88,73200.8,4.29,7.51,7.77,0,*47
1494659335.66,3517,13.88,73202.3,4.33,7.55,7.65,0,*4A
1494659336.88,3518,13.88,73200.0,4.35,7.69,7.79,0,*41
1494659338.1,3519,13.88,73202.8,4.43,7.09,7.19,0,*41
1494659339.33,3520,13.88,73202.3,4.43,6.79,6.91,0,*4C
1494659340.55,3521,13.94,73208.3,4.43,7.23,7.29,0,*41